CICERO 10 (43690 NORAD) Tracking and Keplerian Element Data

This shows tracking and keplerian element data for the satellite.

Feedback or suggestion? Click here.




ElementValue
Catalog43690
NameCICERO 10
Epoch Orbit436
Epoch Day343.84008621
Epoch Year2018
RAAN84.1115
Inclination85.0395
Eccentricity0.0015422
Argument of Perigee179.0938
Mean Anonmoly181.0333
Mean Motion15.19281048
Decay Rate1.249E-05
L11 43690U 18088A 18343.84008621 .00001249 00000-0 57192-4 0 9999
L22 43690 85.0395 84.1115 0015422 179.0938 181.0333 15.19281048 4366

Live tracking and technical data element details for CICERO 10 (NORAD 43690). CICERO 10 can be tracked NOW for your location showing map with azimuth and elevation plus other details from your city location.

Track the satellite on the map from your city or location and see movement details for azimuth, elevation, latitude, longitude, range, height, and movement on the map or in text.







IsCatalogInMostPopularTable: catalog: 43690, numindb: 22
Update: records affected: 1



GetName: 43690 CICERO 10

Hit Count: updated at: Tue, 11 Dec 2018 01:53:13 GMT